CW9825 Weather Reports


Display with metric or nautical units.
time (UTC)temp
F
wind
direction
speed
MPH
gust
MPH
rain 1hr
in
rain 24hr
in
rain mn
in
humidity
%
barometer
mb
20210225104610 16 191 2.0 5.0 0.00 0.00 0.00 91 1024.0
20210225104104 17 246 1.0 5.0 0.00 0.00 0.00 92 1024.1
20210225103556 16 248 1.0 3.0 0.00 0.00 0.00 93 1024.1
20210225103139 16 247 0.0 3.0 0.00 0.00 0.00 92 1024.2
20210225102815 16 247 2.0 3.0 0.00 0.00 0.00 93 1024.3
20210225102051 15 247 0.0 2.0 0.00 0.00 0.00 92 1024.1
20210225101646 15 247 0.0 2.0 0.00 0.00 0.00 92 1024.1
20210225101052 16 247 0.0 2.0 0.00 0.00 0.00 92 1024.1
20210225100544 16 247 1.0 3.0 0.00 0.00 0.00 92 1024.1
20210225100143 16 247 1.0 3.0 0.00 0.00 0.00 91 1024.2
20210225095609 17 259 0.0 2.0 0.00 0.00 0.00 92 1024.2
20210225095252 17 259 0.0 2.0 0.00 0.00 0.00 91 1024.4
20210225094612 17 259 0.0 3.0 0.00 0.00 0.00 91 1024.5
20210225094113 18 259 0.0 4.0 0.00 0.00 0.00 90 1024.5
20210225093609 18 259 2.0 4.0 0.00 0.00 0.00 90 1024.6
20210225093209 18 252 1.0 7.0 0.00 0.00 0.00 90 1024.6
20210225092732 19 241 3.0 7.0 0.00 0.00 0.00 90 1024.6
20210225092035 19 251 2.0 4.0 0.00 0.00 0.00 90 1024.5
20210225091553 19 250 1.0 4.0 0.00 0.00 0.00 90 1024.6
20210225091102 19 250 1.0 5.0 0.00 0.00 0.00 90 1024.8
20210225090535 19 250 2.0 5.0 0.00 0.00 0.00 90 1024.8
20210225090120 19 252 2.0 5.0 0.00 0.00 0.00 89 1025.0
20210225085531 19 252 2.0 8.0 0.00 0.00 0.00 89 1025.0
20210225085029 20 271 3.0 8.0 0.00 0.00 0.00 90 1025.2
20210225084625 20 260 2.0 9.0 0.00 0.00 0.00 89 1025.3
20210225084041 20 249 4.0 10.0 0.00 0.00 0.00 89 1025.2
20210225083528 20 289 3.0 10.0 0.00 0.00 0.00 89 1025.3
20210225083141 20 262 4.0 8.0 0.00 0.00 0.00 89 1025.3
20210225082825 20 271 5.0 8.0 0.00 0.00 0.00 89 1025.3
20210225082032 20 263 4.0 10.0 0.00 0.00 0.00 88 1025.3
20210225081630 21 265 3.0 10.0 0.00 0.00 0.00 88 1025.3
20210225081036 21 271 4.0 10.0 0.00 0.00 0.00 88 1025.4
20210225080533 21 271 4.0 10.0 0.00 0.00 0.00 88 1025.4
20210225080027 21 279 5.0 11.0 0.00 0.00 0.00 88 1025.3
20210225075522 22 252 5.0 11.0 0.00 0.00 0.00 88 1025.2
20210225075025 22 289 6.0 11.0 0.00 0.00 0.00 88 1025.1
20210225074528 22 261 5.0 8.0 0.00 0.00 0.00 87 1025.1
20210225074048 23 269 4.0 10.0 0.00 0.00 0.00 87 1025.1
20210225073522 23 263 5.0 12.0 0.00 0.00 0.00 87 1025.1
20210225073141 24 246 6.0 12.0 0.00 0.00 0.00 86 1025.1
20210225072651 24 272 6.0 11.0 0.00 0.00 0.00 86 1025.2
20210225072024 24 254 6.0 10.0 0.00 0.00 0.00 86 1025.1
20210225071536 24 277 4.0 10.0 0.00 0.00 0.00 86 1025.2
20210225071020 25 265 5.0 9.0 0.00 0.00 0.00 86 1025.1
20210225070519 25 257 4.0 9.0 0.00 0.00 0.00 86 1025.2
20210225070035 25 269 4.0 9.0 0.00 0.00 0.00 86 1025.2
20210225065516 25 287 4.0 9.0 0.00 0.00 0.00 86 1025.1
20210225065021 24 271 4.0 8.0 0.00 0.00 0.00 86 1025.2
20210225064531 24 279 4.0 10.0 0.00 0.00 0.00 86 1025.1
20210225064035 24 277 4.0 10.0 0.00 0.00 0.00 87 1025.1
20210225063532 24 268 4.0 8.0 0.00 0.00 0.00 87 1025.2
20210225063058 24 296 4.0 9.0 0.00 0.00 0.00 86 1025.1
20210225062710 24 286 5.0 9.0 0.00 0.00 0.00 86 1025.0
20210225062011 24 281 4.0 9.0 0.00 0.00 0.00 86 1025.0
20210225061512 24 269 6.0 10.0 0.00 0.00 0.00 86 1025.1
20210225061120 24 273 4.0 10.0 0.00 0.00 0.00 86 1025.1
20210225060559 24 300 5.0 11.0 0.00 0.00 0.00 86 1025.1
20210225060205 25 296 4.0 13.0 0.00 0.00 0.00 86 1025.1
20210225055558 25 285 6.0 13.0 0.00 0.00 0.02 85 1025.1
20210225055330 25 291 8.0 13.0 0.00 0.00 0.02 85 1025.0
20210225054626 26 257 7.0 13.0 0.00 0.00 0.02 85 1025.1
20210225054109 26 278 5.0 13.0 0.00 0.00 0.02 86 1025.1
20210225053557 26 271 9.0 13.0 0.00 0.00 0.02 85 1025.1
20210225053134 26 304 9.0 14.0 0.00 0.00 0.02 86 1025.0
20210225052722 26 253 8.0 15.0 0.00 0.00 0.02 85 1025.1
20210225052106 27 269 9.0 15.0 0.00 0.00 0.02 86 1025.0
20210225051642 27 289 6.0 14.0 0.00 0.00 0.02 86 1025.1
20210225051055 27 291 7.0 13.0 0.00 0.00 0.02 86 1025.0
20210225050603 28 308 7.0 13.0 0.00 0.00 0.02 86 1024.9
20210225050128 28 284 6.0 13.0 0.00 0.00 0.02 86 1024.9
20210225045554 28 269 6.0 13.0 0.00 0.00 0.02 86 1024.8
20210225045108 29 293 5.0 13.0 0.00 0.00 0.02 86 1024.7
20210225044900 29 271 6.0 13.0 0.00 0.00 0.02 86 1024.7
20210225044110 29 284 4.0 10.0 0.00 0.00 0.02 87 1024.6
20210225043553 29 277 6.0 10.0 0.00 0.00 0.02 87 1024.6
20210225043154 29 257 6.0 10.0 0.00 0.00 0.02 87 1024.7
20210225042743 29 261 3.0 9.0 0.00 0.00 0.02 87 1024.6
20210225042053 29 286 6.0 9.0 0.00 0.00 0.02 87 1024.5
20210225041721 29 252 3.0 12.0 0.00 0.00 0.02 87 1024.6
20210225041055 29 275 3.0 12.0 0.00 0.00 0.02 87 1024.6
20210225040550 29 261 4.0 9.0 0.00 0.00 0.02 87 1024.6
20210225040140 29 263 4.0 10.0 0.00 0.00 0.02 87 1024.4
20210225035608 29 282 4.0 10.0 0.00 0.00 0.02 86 1024.5
20210225035059 29 300 7.0 14.0 0.00 0.00 0.02 86 1024.4
20210225034635 29 278 8.0 14.0 0.00 0.00 0.02 86 1024.4
20210225034048 29 286 5.0 13.0 0.00 0.00 0.02 87 1024.3
20210225033551 29 284 8.0 14.0 0.00 0.00 0.02 87 1024.3
20210225033338 29 290 8.0 14.0 0.00 0.00 0.02 87 1024.3
20210225032747 29 304 6.0 15.0 0.00 0.00 0.02 87 1024.1
20210225032051 29 290 8.0 15.0 0.00 0.00 0.02 87 1024.1
20210225031631 29 293 10.0 15.0 0.00 0.00 0.02 87 1024.1
20210225031043 29 293 8.0 17.0 0.00 0.00 0.02 88 1024.0
20210225030550 29 274 6.0 17.0 0.00 0.00 0.02 88 1023.9
20210225030111 29 264 8.0 15.0 0.00 0.00 0.02 88 1023.8
20210225025546 29 311 8.0 15.0 0.00 0.00 0.02 88 1023.7
20210225025043 29 294 9.0 13.0 0.00 0.00 0.02 88 1023.7
20210225024713 29 325 8.0 14.0 0.00 0.00 0.02 88 1023.6
20210225024039 29 290 8.0 14.0 0.00 0.00 0.02 88 1023.5
20210225023539 29 245 5.0 14.0 0.00 0.00 0.02 88 1023.5
20210225023119 29 273 7.0 16.0 0.00 0.00 0.02 88 1023.4
20210225022725 29 303 8.0 16.0 0.00 0.00 0.02 87 1023.3
20210225022041 29 294 6.0 17.0 0.00 0.00 0.02 87 1023.2
20210225021546 29 290 9.0 17.0 0.00 0.00 0.02 87 1023.1
20210225021040 30 303 8.0 15.0 0.00 0.00 0.02 87 1023.2
20210225020539 30 306 6.0 15.0 0.00 0.00 0.02 87 1023.1
20210225020207 30 274 8.0 16.0 0.00 0.00 0.02 87 1023.1
20210225015539 30 266 9.0 16.0 0.00 0.00 0.02 87 1023.1
20210225015046 29 289 7.0 10.0 0.00 0.00 0.02 88 1022.9
20210225014554 29 258 3.0 8.0 0.00 0.00 0.02 88 1022.8
20210225014034 29 234 1.0 4.0 0.00 0.00 0.02 88 1022.6
20210225013531 29 231 0.0 3.0 0.00 0.00 0.02 88 1022.6
20210225013241 29 231 0.0 4.0 0.00 0.00 0.02 88 1022.4
20210225012855 29 229 1.0 4.0 0.00 0.00 0.02 88 1022.5
20210225012035 28 224 1.0 5.0 0.00 0.00 0.02 88 1022.4
20210225011543 28 224 1.0 5.0 0.00 0.00 0.02 88 1022.4
20210225011038 28 213 1.0 4.0 0.00 0.00 0.02 88 1022.3
20210225010535 28 211 1.0 4.0 0.00 0.00 0.02 88 1022.3
20210225010138 28 205 2.0 5.0 0.00 0.00 0.02 88 1022.2
20210225005529 28 254 1.0 5.0 0.00 0.00 0.02 87 1022.2
20210225005043 28 232 1.0 8.0 0.00 0.00 0.02 87 1022.1
20210225004600 28 236 3.0 8.0 0.00 0.00 0.02 87 1022.1
20210225004030 28 228 1.0 5.0 0.00 0.00 0.02 87 1022.0
20210225003536 27 246 0.0 4.0 0.00 0.00 0.02 87 1021.9
20210225003203 27 242 1.0 4.0 0.00 0.00 0.02 87 1021.8
20210225002939 27 223 1.0 4.0 0.00 0.00 0.02 87 1021.8
20210225002049 27 223 2.0 7.0 0.00 0.00 0.02 87 1021.6
20210225001606 27 236 2.0 7.0 0.00 0.00 0.02 86 1021.6
20210225001051 27 231 2.0 5.0 0.00 0.00 0.02 86 1021.7
20210225000529 27 236 1.0 7.0 0.00 0.00 0.02 86 1021.5
20210225000103 27 223 4.0 7.0 0.00 0.00 0.02 86 1021.3
20210224235536 27 180 3.0 6.0 0.00 0.00 0.02 85 1021.3
20210224235342 27 207 1.0 6.0 0.00 0.00 0.02 85 1021.4
20210224234529 27 191 2.0 5.0 0.00 0.00 0.02 85 1021.3
20210224234044 27 190 2.0 6.0 0.00 0.00 0.02 85 1021.2
20210224233533 27 197 3.0 6.0 0.00 0.00 0.02 84 1021.2
20210224233050 27 200 1.0 7.0 0.00 0.00 0.02 84 1021.3
20210224232657 27 245 2.0 7.0 0.00 0.00 0.02 84 1021.2
20210224232025 27 198 3.0 6.0 0.00 0.00 0.02 83 1021.2
20210224231554 27 227 2.0 7.0 0.00 0.00 0.02 83 1021.2
20210224231027 27 215 2.0 7.0 0.00 0.00 0.02 83 1021.3
20210224230528 27 229 1.0 4.0 0.00 0.00 0.02 82 1021.3
20210224230032 27 200 2.0 4.0 0.00 0.00 0.02 82 1021.3
20210224225523 27 205 2.0 4.0 0.00 0.00 0.02 82 1021.2
20210224225025 26 190 1.0 5.0 0.00 0.00 0.02 83 1021.1
20210224224532 26 187 2.0 6.0 0.00 0.00 0.02 83 1021.1
20210224224028 26 188 3.0 6.0 0.00 0.00 0.02 83 1021.2
20210224223520 26 191 3.0 8.0 0.00 0.00 0.02 83 1021.2
20210224223044 26 189 4.0 8.0 0.00 0.00 0.02 83 1021.2
20210224222745 26 191 3.0 7.0 0.00 0.00 0.02 83 1021.3
20210224222031 25 207 2.0 7.0 0.00 0.00 0.02 82 1021.3
20210224221608 25 182 1.0 6.0 0.00 0.00 0.02 82 1021.2
20210224221028 25 183 1.0 6.0 0.00 0.00 0.02 81 1021.2
20210224220522 25 194 3.0 8.0 0.00 0.00 0.02 81 1021.1
20210224220114 25 207 2.0 8.0 0.00 0.00 0.02 80 1021.1
20210224215523 25 188 3.0 8.0 0.00 0.00 0.02 80 1021.0
20210224215231 25 178 3.0 7.0 0.00 0.00 0.02 80 1021.0
20210224214543 25 191 3.0 8.0 0.00 0.00 0.02 80 1021.1
20210224214027 25 178 4.0 8.0 0.00 0.00 0.02 79 1021.0
20210224213520 25 217 2.0 6.0 0.00 0.00 0.02 78 1021.0
20210224213036 24 188 2.0 5.0 0.00 0.00 0.02 79 1021.0
20210224212627 24 184 3.0 6.0 0.00 0.00 0.02 79 1021.0
20210224212026 24 182 3.0 6.0 0.00 0.00 0.02 80 1020.9
20210224211529 24 196 1.0 7.0 0.00 0.00 0.02 79 1020.8
20210224211022 24 215 2.0 8.0 0.00 0.00 0.02 79 1020.8
20210224210523 24 207 3.0 7.0 0.00 0.00 0.02 79 1020.8
20210224210027 24 188 2.0 8.0 0.00 0.00 0.02 79 1020.8
20210224205519 23 168 5.0 10.0 0.00 0.00 0.02 80 1020.8
20210224205111 23 163 4.0 10.0 0.00 0.00 0.02 80 1020.8
20210224204522 24 159 5.0 9.0 0.00 0.00 0.02 80 1020.9
20210224204020 23 184 5.0 9.0 0.00 0.00 0.02 80 1020.8
20210224203529 23 148 5.0 10.0 0.00 0.00 0.02 81 1020.6
20210224203042 23 138 7.0 10.0 0.00 0.00 0.02 81 1020.7
20210224202604 23 160 3.0 8.0 0.00 0.00 0.02 81 1020.7
20210224202021 23 150 5.0 9.0 0.00 0.00 0.02 82 1020.6
20210224201519 23 153 5.0 9.0 0.00 0.00 0.02 82 1020.7
20210224201023 23 146 2.0 7.0 0.00 0.00 0.02 81 1020.7
20210224200520 23 111 3.0 7.0 0.00 0.00 0.02 82 1020.6
20210224200030 22 110 3.0 8.0 0.00 0.00 0.02 82 1020.6
20210224195525 22 140 4.0 8.0 0.00 0.00 0.02 80 1020.8
20210224195159 22 163 4.0 9.0 0.00 0.00 0.02 81 1020.8
20210224194524 22 139 6.0 10.0 0.00 0.00 0.02 82 1020.8
20210224194022 22 147 5.0 10.0 0.00 0.00 0.02 82 1020.9
20210224193536 22 139 5.0 9.0 0.00 0.00 0.02 81 1021.1
20210224193040 22 161 3.0 9.0 0.00 0.00 0.02 80 1021.1
20210224192556 22 148 4.0 8.0 0.00 0.00 0.02 81 1021.1
20210224192021 22 125 4.0 8.0 0.00 0.00 0.02 82 1021.1
20210224191539 21 150 4.0 7.0 0.00 0.00 0.02 83 1021.2
20210224191020 21 130 3.0 7.0 0.00 0.00 0.02 84 1021.2
20210224190516 21 146 4.0 8.0 0.00 0.00 0.02 82 1021.1
20210224190028 21 153 5.0 8.0 0.00 0.00 0.02 81 1021.2
20210224185516 21 105 1.0 3.0 0.00 0.00 0.02 83 1021.2
20210224185321 20 105 1.0 4.0 0.00 0.00 0.02 84 1021.2
20210224184636 19 105 2.0 4.0 0.00 0.00 0.02 83 1021.4
20210224184011 19 105 2.0 4.0 0.00 0.00 0.02 84 1021.4
20210224183528 19 100 2.0 4.0 0.00 0.00 0.02 83 1021.3
20210224183038 19 101 2.0 4.0 0.00 0.00 0.02 83 1021.3
20210224182559 19 95 1.0 3.0 0.00 0.00 0.02 83 1021.5
20210224182019 19 94 2.0 4.0 0.00 0.00 0.02 83 1021.5
20210224181532 19 80 2.0 4.0 0.00 0.00 0.02 83 1021.5
20210224181011 18 28 0.0 4.0 0.00 0.00 0.02 82 1021.4
20210224180526 18 28 1.0 4.0 0.00 0.00 0.02 82 1021.5
20210224180027 19 28 1.0 4.0 0.00 0.00 0.02 82 1021.4
20210224175518 18 34 2.0 4.0 0.00 0.00 0.02 83 1021.3
20210224175257 18 28 2.0 5.0 0.00 0.00 0.02 83 1021.2
20210224174653 18 51 1.0 5.0 0.00 0.00 0.02 82 1021.2
20210224174059 18 51 1.0 3.0 0.00 0.00 0.02 83 1021.2
20210224173604 17 51 1.0 4.0 0.00 0.00 0.02 84 1021.1
20210224173114 17 9 1.0 4.0 0.00 0.00 0.02 83 1021.2
20210224172639 17 5 1.0 3.0 0.00 0.00 0.02 84 1021.1
20210224172112 17 9 1.0 3.0 0.00 0.00 0.02 84 1021.0
20210224171801 17 5 2.0 5.0 0.00 0.00 0.02 84 1021.0
20210224171058 17 15 2.0 5.0 0.00 0.00 0.02 85 1021.1
20210224170557 16 9 1.0 4.0 0.00 0.00 0.02 84 1021.1
20210224170120 16 10 1.0 6.0 0.00 0.00 0.02 84 1021.2
20210224165630 16 26 4.0 6.0 0.00 0.00 0.02 84 1021.1
20210224165218 16 11 2.0 4.0 0.00 0.00 0.02 84 1021.2
20210224164744 16 5 2.0 6.0 0.00 0.00 0.02 85 1021.2
20210224164056 16 5 2.0 6.0 0.00 0.00 0.02 85 1021.3
20210224163558 16 21 2.0 6.0 0.00 0.00 0.02 84 1021.2
20210224163141 16 22 4.0 7.0 0.00 0.00 0.02 83 1021.2
20210224162629 17 60 3.0 8.0 0.00 0.00 0.02 85 1021.1
20210224162112 17 61 5.0 8.0 0.00 0.00 0.02 83 1021.1
20210224161728 18 24 5.0 8.0 0.00 0.00 0.02 83 1020.9
20210224161101 18 360 2.0 6.0 0.00 0.00 0.02 83 1020.9
20210224160556 17 345 2.0 6.0 0.00 0.00 0.02 84 1020.9
20210224160138 17 311 2.0 6.0 0.00 0.00 0.02 84 1020.9
20210224155603 17 9 2.0 5.0 0.00 0.00 0.02 84 1020.9
20210224155211 17 331 3.0 7.0 0.00 0.00 0.02 84 1020.9
20210224154637 17 360 1.0 7.0 0.00 0.00 0.02 85 1020.8
20210224154053 16 341 1.0 6.0 0.00 0.00 0.02 84 1020.8
20210224153543 16 309 1.0 8.0 0.00 0.00 0.02 85 1020.8
20210224153104 16 349 3.0 8.0 0.00 0.00 0.02 85 1020.7
20210224152622 15 350 2.0 4.0 0.00 0.00 0.02 84 1020.7
20210224152044 16 337 2.0 5.0 0.00 0.00 0.02 85 1020.6
20210224151709 15 317 2.0 5.0 0.00 0.00 0.02 86 1020.6
20210224151102 15 284 2.0 5.0 0.00 0.00 0.02 86 1020.6
20210224150535 15 311 1.0 4.0 0.00 0.00 0.02 85 1020.6
20210224150138 15 310 2.0 4.0 0.00 0.00 0.02 86 1020.6
20210224145534 14 310 1.0 5.0 0.00 0.00 0.02 86 1020.6
20210224145225 14 310 1.0 5.0 0.00 0.00 0.02 86 1020.5
20210224144624 13 294 2.0 5.0 0.00 0.00 0.02 86 1020.4
20210224144035 13 300 2.0 5.0 0.00 0.00 0.02 86 1020.4
20210224143526 13 302 1.0 8.0 0.00 0.00 0.02 87 1020.3
20210224143046 13 305 2.0 8.0 0.00 0.00 0.02 87 1020.3
20210224142633 13 314 3.0 8.0 0.00 0.00 0.02 87 1020.2
20210224142044 13 301 3.0 8.0 0.00 0.00 0.02 87 1020.1
20210224141558 13 288 4.0 7.0 0.00 0.00 0.02 88 1020.0
20210224141031 13 290 2.0 5.0 0.00 0.00 0.02 89 1019.8
20210224140522 13 299 2.0 5.0 0.00 0.00 0.02 89 1019.8
20210224140138 13 300 2.0 4.0 0.00 0.00 0.02 90 1019.6
20210224135524 12 329 1.0 4.0 0.00 0.00 0.02 89 1019.4
20210224135023 12 350 0.0 4.0 0.00 0.00 0.02 90 1019.2
20210224134537 12 335 1.0 4.0 0.00 0.00 0.02 90 1019.0
20210224134021 12 325 0.0 3.0 0.00 0.00 0.02 90 1019.0
20210224133524 12 299 1.0 4.0 0.00 0.00 0.02 90 1019.0
20210224133102 12 297 1.0 4.0 0.00 0.00 0.02 90 1019.0
20210224132647 12 336 1.0 5.0 0.00 0.00 0.00 90 1019.0
20210224132037 12 316 1.0 5.0 0.00 0.00 0.00 90 1018.9
20210224131527 13 325 1.0 4.0 0.00 0.00 0.00 90 1018.9
20210224131031 13 325 2.0 6.0 0.00 0.00 0.00 89 1018.8
20210224130525 13 309 3.0 8.0 0.00 0.00 0.00 90 1018.8
20210224130033 13 286 3.0 8.0 0.00 0.00 0.00 90 1018.7
20210224125310 13 292 3.0 8.0 0.00 0.00 0.00 90 1018.6
20210224124527 13 306 4.0 8.0 0.00 0.00 0.00 90 1018.5
20210224124023 13 300 2.0 5.0 0.00 0.00 0.00 90 1018.4
20210224123525 13 296 1.0 6.0 0.00 0.00 0.00 90 1018.5
20210224123058 13 286 3.0 6.0 0.00 0.00 0.00 90 1018.5
20210224122610 13 296 3.0 8.0 0.00 0.00 0.00 90 1018.6
20210224122028 13 284 4.0 10.0 0.00 0.00 0.00 90 1018.7
20210224121515 13 275 4.0 10.0 0.00 0.00 0.00 90 1018.5
20210224121101 13 302 4.0 10.0 0.00 0.00 0.00 90 1018.5
20210224120604 14 304 4.0 10.0 0.00 0.00 0.00 90 1018.4
20210224120117 14 290 5.0 8.0 0.00 0.00 0.00 89 1018.2
20210224115557 15 313 3.0 7.0 0.00 0.00 0.00 90 1017.8
20210224115330 15 317 0.0 5.0 0.00 0.00 0.00 90 1017.3
20210224114725 15 327 2.0 8.0 0.00 0.00 0.00 90 1017.4
20210224114054 15 355 2.0 8.0 0.00 0.00 0.00 90 1017.1
20210224113553 16 326 1.0 6.0 0.00 0.00 0.00 90 1017.1
20210224113235 16 325 1.0 6.0 0.00 0.00 0.00 90 1017.1
20210224112624 16 346 1.0 5.0 0.00 0.00 0.00 90 1017.0
20210224112051 16 331 1.0 9.0 0.00 0.00 0.00 90 1016.8
20210224111607 16 325 2.0 9.0 0.00 0.00 0.00 90 1016.7
20210224111111 16 349 1.0 9.0 0.00 0.00 0.00 91 1016.7
20210224110549 17 290 4.0 9.0 0.00 0.00 0.00 90 1016.7
20210224110130 17 322 4.0 10.0 0.00 0.00 0.00 91 1016.7
20210224105546 17 280 4.0 10.0 0.00 0.00 0.00 91 1016.6
20210224105150 17 312 3.0 8.0 0.00 0.00 0.00 91 1016.6